Location: Lake Crest
(37.6062°N, 88.9176°W)
Time: 10:58:31
(UTC+00:00)

Shenzhou-11 Module - Pass Details

Date: 15 December 2019
Orbit: 302 x 315 km, 42.8° (Epoch: 23 January)

Event Time Altitude Azimuth Distance (km) Brightness Sun altitude
Rises 00:06:26 0° 282° (WNW) 2,063 6.9 -17.0°
Reaches altitude 10° 00:08:45 10° 264° (W) 1,225 5.9 -17.4°
Maximum altitude 00:10:49 19° 215° (SW) 837 4.4 -17.8°
Drops below altitude 10° 00:12:52 10° 166° (SSE) 1,213 4.6 -18.2°
Enters shadow 00:12:54 10° 165° (SSE) 1,226 4.6 -18.2°
